Find Starlink 11088

NORAD ID: 59709 Int'l Des: 2024-088 Owner: SPXS Country: US Constellation: starlink operational
LEOCIRCULAR

リアルタイム位置

3D地球を読み込み中...

Starlink 11088について

説明を読み込み中...

次回通過

Passes for default location (London). Set your location on the main map for personalized predictions.

高度履歴

Loading altitude history...

軌道要素

1 59709U 24088B 26125.19988086 .00092666 00000-0 75992-3 0 9991
2 59709 53.1572 48.0018 0000935 74.5182 285.5939 15.69751015115143
Epoch: May 5, 2026 • Age: 11 hours

現在のステータス

高度 360.9 km
速度 7.70 km/s
衛星直下点 32.36°N, 24.64°W
打ち上げ日 May 10, 2024
運用期間 1.9 years
タイプ internet

技術仕様

分類 Payload
質量 960.00 kg
乾燥質量 910.00 kg
総質量 960.00 kg
長さ 0.30 m
直径 4.10 m
スパン 29.00 m
形状 Box + pan
製造者 SPXS
バスタイプ Starlink V2MD
フェーズステータス In Orbit
所有者/国 SPXS/US

Most Searched